Twentynine Palms (Self) Airport
KNXP : now visible

Airfield :











YOU CAN JOIN US ON...

 
LOGIN :

Register | Disclaimer

   EN    FR    IT 

 









Legend :    VFR   Marginal VFR   IFR   Intensive IFR   Very Intensive IFR
Visi :
Ceiling :
>= 8 km
>= 3000ft
5 to 8 km
1000 to 3000 ft
1500m to 5 km
500 to 1000 ft
800 to 1500m
200 to 500 ft
< 800m
< 200 ft
Symbols :   Thunderstorms  Fog  Heavy snow  Heavy precipitations  Wind > 20 kt







- Airport Elevation : 2051 ft


KNXP - Twentynine Palms (Self)

CURRENT METAR :
  • 211656Z AUTO 33004KT 10SM CLR 25/M03 A3006 RMK AO2 SLP146 T02501028

EXPIRED METARs :
  • 211556Z AUTO 32005KT 10SM CLR 21/M03 A3005 RMK AO2 SLP147 T02111028
  • 211456Z AUTO 32004KT 10SM CLR 17/M02 A3005 RMK AO2 SLP144 T01721022 53014

TAF TAF KNXP
Valid from the 21 at 15:00 until the 22 at 15:00 UTC


2115/2215 VRB05KT 9999 SKC QNH2993INS AUTOMATED SENSOR METWATCH 2115 TIL 2314 T32/2121Z T16/2213Z
No reported NOTAMs for that airfield.



MET'MAP, your aeronautical weather chart ! - Copyright ORBIFLY December 2007 - Disclaimer

ORBIFLY MET'MAP TEAM :

Programming & Development : Alexandra Zaïnal
Concept & Development : Baudouin d'Aumeries
Co-Development & Prog : Marc-Olivier Méhu
Technical & hardware support : Manuel Goepfert

Contact : metmap@orbifly.com




SOURCES & CREDITS :

   NOAA       Earth
Advisory